Terminal Aerodrome Forecast
Issued by NWS Paducah, KY

Home | Current Version | Previous Version | Graphics & Text | Print | Product List | Glossary On
Versions: 1 2 3 4 5 6 7 8 9 10 11 12 13 14 15 16 17 18 19
000
FTUS43 KPAH 201100
TAFPAH
TAF
KPAH 201137Z 2012/2112 06003KT P6SM OVC060
     FM202300 10003KT P6SM BKN050=

USA.gov is the U.S. government's official web portal to all federal, state and local government web resources and services.